Theta_e
293 292 292 291 292 293 292 292 292 293 291 290 291 292 291 292 292 292 292 292 295 296 296 296 298 298 299 299 298 297 299 300 299 299 300 297 296 297 297 296 296 296 296 297 298 298 299 300 302 303 305 306 306 306 306 307 306 306 306 306 305 305
292 292 292 293 293 293 293 292 293 293 292 291 292 292 291 291 291 290 291 292 292 294 293 294 295 296 297 297 297 298 298 299 299 299 297 298 296 297 295 296 296 295 295 295 296 297 297 297 297 298 301 302 304 304 304 304 304 304 304 305 304 305
292 292 291 291 291 291 293 293 292 292 292 293 292 292 293 294 293 291 292 290 291 290 292 293 292 293 294 294 294 296 297 298 296 297 297 292 295 293 294 295 296 296 295 295 295 296 297 298 298 299 300 300 301 302 302 303 302 302 303 302 300 299
292 292 292 292 293 293 292 292 293 293 292 291 291 291 293 292 294 293 293 292 291 290 291 291 289 291 290 291 292 293 295 295 295 294 290 293 296 292 295 295 295 294 294 295 296 296 297 298 299 299 299 300 300 300 301 301 300 299 299 298 299 298
289 289 289 290 290 290 289 291 292 291 291 290 290 290 292 290 291 290 289 290 290 290 289 288 289 289 288 289 291 290 292 292 290 289 292 293 293 290 292 294 293 293 293 293 294 296 296 296 297 298 299 299 300 300 300 300 299 298 297 297 297 297
287 291 292 292 292 291 291 291 291 291 291 291 291 292 292 291 291 290 290 290 290 288 287 288 288 287 287 288 290 290 290 291 290 288 289 291 291 291 290 290 292 292 292 292 293 294 295 295 295 295 296 298 298 299 299 298 297 298 297 297 297 297
289 290 290 290 290 289 289 290 290 290 290 290 291 291 290 290 290 290 290 289 290 290 290 289 288 287 288 288 288 289 289 289 289 288 289 289 290 290 290 290 289 290 291 293 293 294 294 295 295 295 295 296 297 297 297 297 297 296 296 296 296 295
288 288 288 288 288 288 288 289 289 290 290 290 288 290 290 290 288 289 289 289 289 290 290 290 290 290 289 289 289 289 289 289 288 289 288 288 290 290 290 291 290 290 291 291 292 293 294 294 294 294 295 295 295 295 295 296 296 296 296 296 295 295
288 289 289 288 288 288 288 289 290 290 290 290 289 289 289 289 289 290 289 289 288 289 290 290 290 291 290 290 289 289 289 289 288 288 289 288 289 289 290 289 290 290 290 291 291 292 292 293 293 293 294 294 295 294 294 294 294 294 294 295 295 294
288 288 288 289 289 289 289 288 288 289 289 289 289 289 288 289 289 289 289 289 289 289 290 290 289 290 290 290 289 289 289 289 289 288 288 287 288 289 289 289 290 290 289 290 291 291 291 291 292 293 293 293 293 293 293 293 293 293 293 293 293 293
288 288 288 288 289 289 289 289 289 288 288 287 287 287 288 287 287 287 288 288 288 289 289 289 289 289 288 289 289 289 289 289 289 289 288 287 288 288 288 289 289 289 289 290 289 290 290 291 292 293 292 292 293 292 292 292 292 292 292 292 292 292
287 287 287 288 288 288 288 289 289 289 288 288 288 287 287 286 286 286 286 286 287 287 287 287 287 287 287 288 288 288 288 288 288 288 288 288 288 288 288 287 287 288 289 289 290 290 290 291 293 291 292 293 292 292 292 292 292 292 292 291 291 291
286 286 287 287 287 287 288 288 288 287 287 287 287 287 286 285 285 285 286 287 286 286 286 285 286 286 286 287 286 287 287 288 287 287 287 287 287 288 288 287 287 287 287 288 289 289 290 291 292 292 294 295 295 293 291 291 291 291 291 291 291 291
286 287 287 287 287 287 287 287 287 287 288 287 287 287 286 286 286 286 286 286 286 286 286 286 286 285 285 285 286 286 286 286 286 286 287 287 287 287 286 286 287 287 287 288 288 288 289 290 291 293 294 294 295 294 292 291 291 291 291 290 290 290
285 285 286 286 287 287 287 286 286 287 287 287 286 286 286 286 286 286 287 287 287 287 287 287 287 286 286 286 286 286 285 285 285 285 286 287 286 285 286 287 287 287 287 287 288 288 289 290 291 293 293 294 294 295 293 292 291 291 290 290 290 290
285 285 285 285 285 285 285 285 285 286 285 285 285 285 285 285 286 286 286 286 286 286 286 286 286 286 286 286 286 286 286 286 286 286 286 286 286 285 286 286 286 286 286 286 287 288 288 289 290 292 293 293 293 294 294 292 291 291 290 290 290 290
284 284 285 285 285 285 284 285 284 285 285 284 284 284 284 285 285 285 286 286 286 286 286 285 285 285 285 285 285 286 286 286 286 287 287 287 287 286 287 287 287 287 287 286 286 287 287 288 290 291 292 292 293 294 293 292 290 290 289 289 289 289
285 285 285 284 283 284 283 285 285 285 285 284 283 284 284 284 284 285 285 286 285 285 285 284 284 284 284 284 285 285 285 285 286 286 287 287 287 286 286 286 285 286 286 287 286 286 287 288 290 291 291 292 293 293 290 290 289 289 288 288 288 288
284 284 284 284 284 285 285 285 284 284 284 284 285 284 284 284 285 285 285 285 285 284 284 284 283 283 283 283 283 284 284 284 285 286 285 285 286 286 286 286 286 286 286 286 286 286 286 287 288 290 290 291 292 292 289 288 288 288 287 287 287 287
284 283 283 284 284 284 284 284 283 283 283 284 284 284 284 284 285 285 285 285 284 284 284 283 283 282 282 283 282 283 283 284 284 285 284 284 284 285 286 286 286 285 284 284 285 285 286 286 287 288 290 290 291 290 288 288 287 287 287 286 286 286
284 283 283 283 284 285 283 282 281 282 283 283 283 283 283 284 285 285 284 284 284 283 283 282 282 282 282 282 282 282 282 283 283 283 283 283 283 283 284 283 283 284 284 282 283 283 284 284 285 287 289 290 290 290 287 287 287 286 286 286 285 285
283 285 285 284 284 284 283 282 282 281 282 282 282 282 283 284 284 284 284 283 283 283 282 282 281 281 281 281 281 281 281 281 281 281 282 282 282 282 282 281 281 281 282 282 281 281 281 282 283 284 288 289 290 290 288 286 286 286 286 285 285 284
282 283 283 283 283 283 282 281 281 282 282 281 281 282 283 283 283 283 283 282 282 282 281 281 280 280 280 279 279 280 280 279 280 280 280 280 280 280 280 280 280 280 280 280 279 279 279 280 281 282 286 288 289 290 289 286 286 286 286 285 284 283
282 282 282 282 282 281 281 280 280 281 281 280 281 282 282 282 282 282 281 281 281 280 280 280 280 280 279 279 278 278 279 279 278 278 278 278 278 278 278 279 278 279 279 279 277 277 278 279 281 280 284 286 288 289 290 287 286 286 286 285 283 282
281 282 282 282 281 281 280 277 278 280 280 280 281 282 282 282 281 281 280 279 279 279 279 279 279 279 279 278 278 277 277 278 278 278 276 276 276 277 277 278 278 277 278 278 277 276 277 277 279 283 283 285 287 288 289 289 288 288 286 284 282 281
280 281 281 281 279 277 278 276 278 278 279 280 282 281 281 280 280 279 278 278 278 278 278 278 278 278 277 277 277 276 276 277 278 277 276 275 275 276 277 278 277 276 277 277 278 278 277 278 278 281 283 284 285 287 288 289 289 289 285 283 282 282
279 279 279 279 279 279 276 275 275 277 277 279 280 280 280 279 278 277 277 277 277 277 278 278 278 277 277 276 275 275 277 277 277 277 277 274 275 275 276 277 276 276 278 278 279 280 280 280 281 281 282 284 284 285 287 288 289 289 288 283 282 282
274 274 276 277 277 278 276 275 274 276 278 279 278 278 278 277 276 276 276 276 277 277 277 277 277 277 277 276 275 274 275 275 275 276 276 274 275 275 275 276 277 278 279 279 280 281 281 281 281 281 282 283 284 284 285 287 288 286 286 284 282 282
274 273 273 274 275 276 276 274 274 276 277 277 277 277 276 275 275 275 275 275 276 277 276 276 276 277 277 276 275 274 274 274 274 274 275 275 275 275 276 277 278 279 280 280 280 281 280 280 280 281 281 282 283 284 285 285 285 285 284 282 282 282
272 273 273 273 275 275 275 275 274 275 275 275 276 275 274 274 274 274 275 275 275 276 276 275 276 276 276 276 275 275 276 275 273 274 275 276 276 276 277 278 279 280 280 280 280 280 280 280 280 281 281 282 283 283 283 283 282 282 281 280 281 281
271 271 271 271 272 272 272 272 272 273 273 274 274 274 274 274 274 274 274 274 275 275 276 275 275 275 275 275 275 275 274 275 275 276 275 276 276 277 277 277 278 279 280 280 279 279 279 280 280 281 284 283 284 283 282 281 281 281 280 281 282 282
269 268 269 270 270 269 269 269 270 271 272 273 274 274 273 273 273 273 274 275 275 275 276 276 276 275 275 275 275 275 276 277 279 278 276 276 279 281 282 282 279 279 279 279 280 281 280 279 281 284 285 285 285 285 284 283 283 283 281 283 284 283
267 267 266 267 267 267 267 268 270 271 272 274 275 274 273 272 272 273 273 274 275 275 276 276 276 277 277 277 276 276 276 276 278 281 282 282 281 282 282 283 283 284 284 281 279 280 283 284 284 284 285 285 285 285 284 284 284 283 283 284 283 281
264 264 264 265 265 266 267 269 271 272 274 274 273 273 272 272 271 271 272 273 274 275 275 276 277 277 278 278 278 277 276 276 277 278 281 283 283 283 283 283 283 284 283 283 283 281 280 283 284 285 285 285 285 284 284 284 284 284 284 284 284 280
263 263 263 264 265 266 268 270 272 274 273 272 272 272 270 270 270 270 270 271 273 274 275 276 277 277 278 278 278 278 278 278 277 277 278 280 284 284 283 283 283 284 284 283 283 283 282 282 284 285 285 285 284 284 284 284 284 284 284 285 282 279
262 262 263 264 266 268 269 271 271 271 270 271 271 270 269 268 269 269 270 271 272 273 274 275 276 277 278 279 279 279 279 279 279 279 279 278 279 280 282 284 284 283 283 283 283 283 283 283 284 285 285 285 284 284 284 284 283 284 285 284 279 278
261 262 264 266 268 268 268 267 267 269 270 270 269 268 268 268 268 269 270 272 272 273 274 275 276 277 278 279 279 279 279 279 279 279 279 278 278 278 278 279 280 282 283 282 282 283 283 283 284 285 285 285 284 284 284 284 281 281 282 279 277 277
262 263 265 266 264 263 263 265 267 269 269 269 269 268 267 268 268 268 269 269 270 271 273 274 275 276 277 278 279 280 280 279 279 279 279 279 278 278 278 278 279 279 281 282 282 282 283 284 284 285 285 284 284 284 284 281 280 278 276 275 274 274
Wind_Speed
8 6 6 5 6 7 6 6 7 6 6 4 3 4 4 4 4 4 4 4 5 5 5 5 6 6 6 6 6 5 6 8 7 7 8 5 5 6 6 6 7 7 6 7 7 7 8 8 8 8 8 8 9 9 9 9 8 9 11 10 9 10
7 7 8 10 10 9 8 7 8 10 7 7 8 5 3 3 3 3 4 4 5 5 4 5 5 5 5 5 5 6 7 8 6 6 6 7 5 6 5 6 7 7 8 8 9 9 8 8 8 8 8 8 9 9 9 8 9 11 12 11 9 9
7 7 6 6 6 6 8 9 9 6 7 10 9 9 10 9 6 5 4 4 4 4 5 5 4 5 5 5 5 6 7 6 6 6 6 4 7 5 6 7 8 7 8 8 8 10 10 10 10 9 9 9 10 10 10 9 9 11 11 9 10 8
8 7 7 8 10 11 11 9 9 10 9 7 8 8 8 9 10 8 9 7 5 5 5 5 4 4 4 5 5 6 7 7 6 6 5 6 8 5 7 8 7 7 7 8 9 9 9 9 10 8 9 10 11 11 9 10 10 11 11 9 11 9
5 4 5 6 7 6 6 7 8 7 6 7 6 6 8 6 6 6 5 6 6 6 5 5 5 4 4 5 6 6 8 7 6 5 6 7 7 5 7 7 7 8 7 8 8 9 9 9 9 8 8 10 11 12 11 10 10 11 11 11 12 10
5 7 9 10 10 9 9 8 7 7 7 8 7 9 9 8 6 6 6 6 6 5 5 5 5 5 5 5 6 7 7 7 6 5 6 7 6 7 7 6 7 7 7 8 9 9 9 9 9 8 9 11 11 11 11 10 10 11 11 12 11 10
5 6 5 6 7 6 6 7 6 6 8 8 9 8 7 7 7 7 8 7 10 9 8 7 6 6 6 6 5 7 7 6 6 5 6 6 7 7 7 7 6 7 8 10 10 10 10 10 9 9 10 10 10 11 10 10 10 10 11 11 10 10
1 2 3 4 5 5 5 5 5 7 6 6 5 7 8 7 7 7 8 8 9 10 10 9 8 8 8 8 7 7 7 7 6 6 5 6 8 7 7 8 7 7 9 9 10 10 10 9 9 10 11 11 10 10 10 9 10 10 10 10 10 9
2 1 0 0 1 1 2 5 7 7 7 7 6 6 7 8 9 8 8 9 7 9 10 10 9 10 9 8 8 7 7 7 6 6 7 6 7 7 8 7 8 7 8 10 8 10 10 10 9 10 10 10 10 10 10 10 10 10 10 9 10 9
1 1 2 3 5 6 7 6 5 6 7 8 7 7 6 8 8 8 8 8 8 8 9 9 8 9 9 9 8 8 8 7 7 6 6 5 7 7 8 8 8 8 7 9 9 9 8 9 9 9 10 10 10 9 10 10 10 10 9 9 9 8
7 8 9 9 9 10 8 6 6 5 5 4 5 5 6 6 6 6 7 7 7 8 8 7 7 7 8 8 8 9 9 9 8 8 7 6 7 7 7 7 7 9 9 9 9 10 8 9 10 9 9 10 10 9 10 10 10 10 10 9 9 8
6 6 6 7 8 8 8 8 8 7 7 7 6 6 6 5 5 5 5 5 5 5 6 6 6 7 7 8 8 9 9 9 9 8 8 8 7 8 7 7 7 8 9 10 10 9 9 10 9 11 15 14 11 9 9 9 9 9 9 9 9 9
5 5 6 6 7 7 7 7 6 6 5 5 5 6 5 4 4 4 4 5 5 5 5 5 5 5 6 6 6 7 7 9 8 8 9 8 8 9 8 7 8 8 8 9 10 10 9 9 9 14 16 17 19 12 9 9 9 9 9 9 10 10
6 7 7 7 6 6 6 8 8 7 8 8 8 8 7 6 6 6 6 5 5 5 5 5 5 5 5 5 6 6 7 7 7 7 8 8 9 8 6 7 9 9 8 8 9 10 10 10 11 15 16 17 17 15 11 9 9 9 9 9 10 9
5 5 6 6 7 7 7 6 7 8 9 10 10 9 9 9 8 9 8 8 8 8 9 9 10 9 9 8 7 6 6 6 6 6 7 9 7 6 7 8 8 9 8 8 10 11 11 10 11 14 16 16 17 17 14 9 10 9 9 9 9 9
4 5 4 5 5 5 6 5 5 7 7 7 7 8 9 10 11 9 10 9 10 10 10 10 11 12 11 10 11 10 9 9 9 8 7 8 7 6 8 7 8 8 8 8 9 11 10 10 10 14 16 16 16 16 14 10 10 10 9 9 8 8
3 4 4 4 5 5 4 5 4 5 5 6 7 6 8 7 7 8 8 9 9 9 11 12 11 12 13 12 12 12 12 11 12 12 10 9 9 10 10 9 9 9 7 8 8 9 12 10 11 14 15 15 16 15 14 10 8 8 8 8 7 7
5 4 5 4 3 4 3 5 6 7 8 4 4 6 6 7 7 7 8 10 10 10 10 10 12 12 11 12 12 12 12 12 11 12 12 11 10 8 7 8 7 9 10 8 7 9 12 10 10 13 14 15 15 15 10 8 8 9 8 8 7 7
4 5 4 5 5 6 7 6 6 7 8 9 8 8 8 7 8 8 9 9 9 9 9 9 10 11 11 10 11 12 11 12 13 12 8 11 11 10 10 10 10 8 9 10 8 9 12 11 8 12 14 14 16 12 8 7 7 7 8 8 8 8
3 4 4 6 7 5 6 7 8 9 9 10 9 10 11 10 10 9 10 10 10 10 10 9 9 10 11 10 10 11 11 10 9 9 7 9 12 13 11 9 11 10 7 9 11 9 11 12 8 10 14 14 15 12 9 7 7 8 8 7 6 5
6 5 5 5 7 8 6 5 5 6 8 7 8 8 8 9 9 9 11 12 11 10 10 9 9 9 10 11 11 9 11 11 10 10 8 8 8 11 10 9 9 11 9 7 9 10 11 11 10 11 14 14 14 12 7 7 7 8 7 6 6 5
7 9 9 8 8 7 8 6 5 5 6 7 6 7 8 8 9 9 9 9 10 9 9 7 8 9 8 10 11 9 9 8 9 9 8 9 8 9 10 8 8 11 11 7 7 9 8 9 10 9 16 15 14 15 9 5 6 8 7 6 6 6
4 5 6 7 7 7 6 5 6 8 7 7 7 8 8 8 8 9 10 10 11 11 10 9 6 9 10 7 9 10 9 7 8 10 8 10 9 9 10 10 9 9 11 8 6 8 8 8 9 9 10 13 14 14 12 6 7 7 7 6 6 6
5 6 6 5 5 5 5 4 5 6 7 7 9 8 7 8 9 9 10 11 12 12 11 11 11 8 8 9 8 10 12 9 6 8 8 7 8 10 12 10 8 9 11 9 6 6 8 7 9 8 9 11 12 12 14 9 8 7 6 6 6 5
5 6 7 7 6 5 5 5 5 7 6 9 10 8 8 8 9 9 10 11 12 12 12 11 11 11 8 9 8 9 12 11 8 8 6 7 9 9 11 10 8 9 10 10 8 5 7 7 7 9 8 9 12 13 13 13 9 11 7 7 7 5
4 6 6 5 4 3 4 4 5 7 8 11 10 8 8 9 9 9 10 10 11 11 12 11 11 10 8 9 9 9 10 11 10 8 7 6 7 8 10 9 7 8 9 10 10 7 6 7 6 6 9 9 11 12 13 14 16 14 7 7 6 5
5 7 7 6 7 5 4 3 5 7 8 9 7 9 10 10 10 10 11 11 11 11 10 11 11 10 10 9 7 9 10 11 8 10 8 5 6 7 8 9 7 8 9 9 10 9 7 6 5 5 6 9 10 13 13 15 15 17 14 6 4 4
4 5 7 8 7 8 5 4 4 7 9 7 8 9 9 10 11 12 13 12 12 12 11 12 13 11 9 9 7 7 8 9 10 9 10 7 7 7 8 8 7 7 8 9 9 8 8 5 4 5 5 5 7 8 12 13 11 8 9 6 4 7
5 5 5 7 5 6 6 5 5 6 8 8 7 8 9 9 10 11 11 11 11 11 9 10 10 10 10 9 7 7 7 7 7 8 9 8 8 8 7 7 7 7 7 8 8 8 7 6 5 5 5 5 5 5 5 5 4 5 5 3 2 4
5 6 7 8 8 7 7 7 7 7 8 8 8 8 8 8 9 11 12 12 10 10 9 9 11 11 9 9 8 8 9 8 7 8 10 9 8 8 9 8 8 7 7 8 7 7 7 6 5 5 5 5 4 4 2 1 2 2 2 2 1 2
7 7 8 9 7 8 8 9 9 9 9 9 8 8 8 10 10 11 12 11 9 9 8 8 8 8 9 10 9 7 8 9 9 9 10 8 7 8 9 9 9 9 7 7 7 8 9 7 7 7 5 5 6 5 4 4 4 4 4 5 7 4
6 8 8 8 7 8 9 9 9 8 8 8 7 7 8 10 11 12 12 10 10 10 10 9 9 8 8 9 9 10 11 9 13 11 10 10 9 14 16 14 11 9 7 8 8 6 9 9 6 5 7 8 8 9 9 8 8 7 5 7 10 5
6 7 8 8 7 8 9 9 9 9 8 7 8 9 10 10 11 12 11 11 10 11 11 11 11 10 9 8 9 8 10 12 10 12 17 18 14 12 14 16 19 19 14 9 8 7 10 10 9 10 9 10 9 9 9 10 9 10 9 10 7 5
7 8 10 9 9 10 10 10 9 9 8 8 10 10 10 10 11 12 12 11 11 13 12 11 11 12 11 10 9 8 9 10 12 13 10 13 17 15 14 15 15 14 14 15 13 8 6 10 11 11 11 11 11 11 11 12 12 12 12 12 11 4
8 8 9 9 10 11 10 9 9 7 8 10 10 10 11 12 12 13 13 12 12 12 13 12 11 11 10 11 10 10 8 8 9 11 13 8 9 14 13 13 14 15 15 15 15 15 12 9 9 11 12 12 12 12 12 13 13 13 13 14 7 5
9 9 9 10 11 11 10 10 9 11 12 11 11 10 11 11 12 12 11 11 12 12 12 11 11 11 11 10 10 9 9 9 9 10 10 11 10 7 8 11 13 13 14 14 15 14 13 12 12 12 11 13 12 13 12 11 8 11 14 10 6 6
9 9 9 11 11 10 11 12 12 11 11 11 12 11 11 11 12 11 13 18 15 10 11 10 10 11 11 11 10 10 9 9 9 8 9 9 9 10 9 7 5 7 10 9 8 11 13 12 12 12 12 12 12 12 12 11 6 6 5 5 5 5
9 9 8 9 10 11 12 12 10 10 10 11 11 11 11 11 11 12 11 11 12 11 10 10 10 10 11 11 11 11 10 9 9 9 9 9 9 9 9 8 5 4 5 9 10 11 12 12 13 11 13 12 12 11 12 6 4 4 5 5 5 5
Wind_Direction
20 26 28 9 16 13 17 6 4 12 17 5 354 333 316 294 289 281 283 267 263 260 259 255 257 252 252 252 250 249 245 250 243 241 245 257 237 232 228 224 227 225 226 223 231 228 228 227 228 225 229 226 237 237 242 239 236 242 245 241 233 243
32 24 19 14 5 5 4 10 16 21 7 6 2 352 350 344 324 290 284 277 269 276 278 273 263 267 263 258 255 253 249 252 251 249 253 243 237 237 232 230 230 224 221 220 221 224 226 226 225 218 224 225 234 237 239 236 230 238 241 242 230 233
22 17 14 14 8 19 19 21 15 8 12 14 12 4 351 352 349 344 325 308 289 282 283 282 284 276 271 274 264 263 264 265 256 255 251 261 245 232 233 233 235 233 230 231 229 229 227 221 221 212 214 219 230 233 234 236 228 236 242 238 239 228
14 13 16 20 25 16 12 3 10 14 15 6 1 2 3 350 346 350 337 331 314 307 299 293 288 283 285 280 278 270 272 270 264 257 261 247 253 225 238 237 239 236 234 234 235 234 236 235 231 220 215 220 225 232 226 233 230 234 242 235 242 233
21 11 30 35 31 18 11 8 11 2 360 7 7 7 352 347 324 322 308 304 319 322 316 312 306 299 292 287 282 277 273 273 270 260 255 255 258 241 239 245 241 239 238 240 241 239 239 235 237 231 223 228 230 233 230 225 226 231 237 237 240 239
6 20 21 16 14 10 5 358 352 355 5 3 2 3 348 347 344 330 331 331 329 325 321 321 314 318 308 296 286 283 281 280 278 267 259 261 264 260 251 242 248 245 240 243 244 240 241 239 234 232 226 231 232 236 236 230 228 231 235 237 241 237
19 20 10 10 2 3 360 356 352 359 2 2 359 351 340 337 339 342 342 343 338 341 348 342 340 331 315 299 291 285 287 284 283 275 264 269 265 257 259 256 239 247 242 241 242 242 239 237 235 232 233 234 236 238 238 234 232 233 235 237 239 239
13 8 6 2 0 350 342 345 356 2 6 1 348 348 345 343 342 342 341 347 348 343 344 342 340 338 328 319 313 305 300 295 287 281 269 254 266 263 254 255 250 237 247 243 245 243 245 241 234 233 235 235 236 238 238 238 238 237 236 236 235 235
2 337 315 278 249 259 345 5 5 3 356 351 357 355 346 342 346 344 346 348 351 342 341 339 336 331 326 322 316 311 307 301 291 283 278 265 260 267 266 257 256 249 245 252 246 247 245 245 236 236 236 238 236 234 234 234 235 238 239 238 236 234
70 23 357 3 11 8 16 17 10 357 350 340 341 346 346 345 347 343 344 347 346 344 336 334 327 328 323 319 319 316 312 309 305 295 284 280 274 268 265 263 260 260 245 251 248 251 247 247 245 239 239 238 236 233 234 231 232 234 238 240 239 235
358 357 0 359 3 5 0 360 356 351 341 332 333 339 341 340 338 336 336 339 341 335 328 323 324 320 319 320 320 320 319 316 310 306 300 289 279 271 266 267 265 269 264 257 252 255 246 245 244 238 236 240 239 232 235 230 229 230 235 238 238 235
357 352 348 359 0 355 351 350 349 348 339 336 337 335 331 341 329 326 325 326 317 312 313 314 314 315 315 317 319 317 315 312 309 306 302 295 286 281 275 272 265 260 265 268 264 257 252 248 247 241 237 234 236 234 234 232 231 228 231 235 239 237
348 350 355 351 351 346 341 334 327 325 320 324 327 327 322 314 308 321 328 327 317 308 301 305 301 299 303 297 298 300 303 304 305 305 301 296 291 286 285 278 274 265 259 260 263 264 257 253 250 245 242 242 238 235 234 231 234 228 230 231 233 237
347 348 341 338 336 338 339 335 332 331 336 335 335 334 328 336 342 346 342 327 322 322 326 321 312 309 301 299 296 295 291 289 291 291 289 290 291 287 284 280 270 272 269 266 264 261 259 257 251 247 247 245 245 238 235 233 232 229 228 228 230 234
331 322 325 330 331 332 328 327 327 331 331 333 329 332 341 346 347 341 341 343 342 343 343 340 340 336 334 332 325 313 308 300 297 294 296 292 285 287 280 270 274 269 268 264 267 266 260 258 253 250 250 248 245 241 236 238 234 233 234 228 229 229
315 315 306 299 302 306 302 310 303 306 312 313 325 338 343 344 342 343 337 340 344 343 342 342 341 338 334 332 331 331 330 330 325 315 298 294 299 289 286 282 273 273 267 262 262 268 269 262 259 250 250 249 245 243 238 240 237 236 236 234 228 228
290 302 312 314 313 307 310 310 312 310 321 335 337 339 335 338 330 333 336 337 337 342 343 341 340 336 334 333 334 334 333 333 328 329 327 321 317 313 305 302 298 285 274 270 264 269 272 267 263 257 253 251 248 244 240 239 239 238 237 234 229 224
312 307 302 291 298 303 312 324 331 338 332 330 331 333 336 332 333 330 338 338 338 340 339 338 333 331 331 330 330 330 328 328 327 324 324 320 314 304 293 290 279 284 288 280 275 277 276 275 266 262 260 256 254 247 242 239 237 238 235 231 224 223
290 300 309 324 335 341 344 339 342 339 334 342 344 342 339 340 337 339 337 331 330 331 332 332 327 324 323 323 323 321 321 324 322 321 321 313 311 308 307 300 294 291 288 288 281 275 279 281 274 266 264 260 257 253 247 239 239 238 236 232 225 226
312 321 342 333 334 339 341 346 345 343 341 339 341 344 339 341 335 334 333 328 329 326 326 325 321 316 316 316 315 313 310 310 302 301 313 307 309 307 305 304 301 294 283 283 283 272 279 284 277 268 268 261 256 246 245 239 238 240 236 240 231 224
337 323 337 342 338 336 346 341 340 338 329 328 331 334 330 328 326 331 328 322 319 318 316 316 313 310 308 308 305 306 305 307 305 303 306 296 291 289 294 299 294 294 289 274 276 282 276 280 281 272 270 262 257 250 242 238 236 244 242 235 235 219
346 342 340 339 326 331 332 334 334 325 317 319 323 323 321 319 321 316 311 308 307 304 303 301 302 297 295 297 298 297 292 295 300 300 301 298 292 292 297 295 290 290 291 290 283 282 273 277 278 269 271 266 259 251 245 245 245 248 248 232 230 225
332 306 305 306 311 318 319 328 333 322 319 318 321 312 310 313 314 314 312 311 309 308 306 303 295 299 298 287 289 294 293 289 291 300 303 302 303 299 296 295 295 291 288 290 281 280 276 265 273 274 262 264 261 255 245 238 241 247 244 243 232 226
313 306 304 295 302 311 313 323 317 304 309 313 304 299 308 315 315 314 314 311 310 307 306 306 306 299 293 298 300 299 298 295 285 284 292 295 295 300 298 297 297 295 292 293 282 275 276 271 263 270 269 260 255 246 235 229 235 233 242 245 241 229
306 301 298 309 315 315 310 324 314 307 310 305 298 310 316 315 315 313 310 308 306 304 302 302 301 301 304 299 297 292 291 295 298 292 292 294 298 297 297 296 300 298 297 297 287 277 276 272 269 266 266 261 256 248 243 235 230 239 229 229 234 221
279 286 291 295 296 296 300 310 305 307 306 298 303 312 311 312 310 307 303 300 297 298 298 299 297 295 293 290 293 291 288 293 296 294 287 288 292 295 297 297 295 294 294 296 298 290 275 272 267 269 268 267 265 263 256 249 243 234 215 213 215 199
299 300 302 307 315 324 326 313 302 297 293 292 309 306 310 310 311 309 304 302 300 299 298 300 297 297 296 292 288 293 295 295 298 299 298 291 288 285 284 287 292 285 289 292 290 291 286 279 280 275 274 268 267 266 263 257 249 244 228 215 228 192
291 299 302 310 313 313 321 311 294 291 288 301 304 303 303 308 309 308 304 304 303 302 305 305 302 300 293 291 285 273 275 282 292 292 292 294 281 281 278 283 289 282 281 283 286 287 289 297 290 281 277 274 264 262 259 257 251 218 209 202 211 212
320 306 300 299 302 307 312 312 294 282 297 305 302 301 300 301 300 295 295 294 297 297 298 295 295 300 301 294 286 277 272 270 275 279 280 281 284 283 279 273 276 280 277 278 283 286 290 283 275 270 268 266 266 266 268 258 226 199 196 175 199 204
310 315 319 315 317 321 318 318 314 310 310 309 309 303 299 297 296 297 297 297 293 290 290 289 287 289 291 291 289 289 292 279 260 269 274 278 279 284 284 281 272 271 273 276 278 284 282 275 263 250 246 248 237 240 224 147 119 129 109 116 134 159
325 321 318 311 317 320 320 318 315 314 314 311 307 304 306 305 304 300 298 297 294 290 286 278 282 285 290 292 291 268 247 269 281 269 269 256 241 248 266 277 273 268 265 267 270 275 281 273 264 253 226 227 224 201 168 162 160 141 146 167 171 163
319 310 308 307 317 317 313 310 309 308 305 304 306 310 313 313 312 309 307 309 304 304 304 303 297 293 290 291 295 300 292 247 235 242 258 273 252 248 250 253 262 264 264 267 263 247 258 270 272 273 238 230 216 197 185 172 162 163 155 169 175 167
311 307 305 307 313 311 308 307 309 308 307 310 322 328 322 321 317 311 308 311 309 307 307 303 302 299 295 290 291 293 295 305 294 248 246 254 255 250 255 261 263 268 263 250 269 265 260 269 266 257 239 221 201 179 164 165 165 165 169 174 169 174
320 318 315 316 313 309 309 306 306 303 311 329 332 328 323 324 320 313 309 310 306 306 302 300 298 299 297 296 291 286 290 294 298 301 278 253 259 260 255 260 263 265 268 264 262 265 271 264 256 247 230 207 185 170 166 164 167 172 174 185 174 152
317 311 307 307 306 306 305 306 306 317 336 332 327 325 323 321 317 309 305 304 303 302 300 297 294 290 287 285 287 286 282 279 284 290 302 290 237 244 249 255 262 265 268 268 265 259 255 254 251 245 226 192 177 169 168 171 174 177 181 184 160 129
311 308 306 304 305 304 307 314 330 335 326 323 321 321 317 313 308 302 298 298 299 297 293 292 289 289 288 283 279 276 275 272 267 274 278 291 300 280 252 249 253 260 264 266 263 258 256 254 247 244 209 182 176 173 173 172 184 186 195 176 137 138
306 305 302 301 310 320 325 323 320 316 316 318 316 314 311 308 305 301 296 295 295 290 290 289 289 288 287 287 284 280 276 273 271 266 270 273 278 281 284 286 264 255 254 255 261 258 250 248 248 236 195 184 179 178 178 176 177 193 183 109 86 110
303 301 310 324 327 320 310 306 306 311 315 311 309 311 309 306 305 302 298 297 295 291 288 290 292 291 288 288 285 282 277 275 273 270 267 267 265 268 272 274 256 242 253 250 253 257 256 251 252 218 187 184 182 182 180 171 180 114 107 110 93 98